Hourly Weather Roundup
Issued by NWS Central Illinois

Current Version | Previous Version | Text Only | Print | Product List | Glossary On
Versions: 1 2 3 4 5 6 7 8 9 10 11 12 13 14 15 16 17 18 19 20 21 22 23 24 25 26 27 28 29 30 31 32 33 34 35 36 37 38 39 40 41 42 43 44 45 46 47 48 49 50
000
NZUS43 KILX 120310
HWRILX

AREA WEATHER ROUNDUP
NATIONAL WEATHER SERVICE, LINCOLN IL
900 PM CST THU FEB 11 2016


CITY           SKY/WX    TMP DP  RH WIND       PRES   REMARKS
BLOOMINGTON    MOCLDY    22  11  62 S6        30.28F WCI  15
CHAMPAIGN      PTCLDY    20  11  68 E3        30.29S
DANVILLE       CLOUDY    19   9  65 CALM      30.27S
DECATUR        CLOUDY    24   9  52 SE6       30.29F WCI  17
EFFINGHAM      MOCLDY    25  15  65 CALM      30.32S
FLORA          CLOUDY    27  12  52 CALM      30.32R
GALESBURG      CLOUDY    23  10  58 SW3       30.27S
JACKSONVILLE   CLOUDY    26  15  62 S5        30.29F WCI  20
LACON          PTCLDY    21   7  53 CALM      30.29F
LAWRENCEVILLE  MOCLDY    25  12  58 NE3       30.31F
LITCHFIELD     CLOUDY    24  11  57 CALM      30.29F
$$


CITY           SKY/WX    TMP DP  RH WIND       PRES   REMARKS
LINCOLN        CLOUDY    25  12  56 S3        30.30S
MACOMB         CLOUDY    24  12  59 CALM      30.30S
MATTOON        CLOUDY    21   9  59 S3        30.29S
MT CARMEL AP   CLOUDY    27  12  54 NE5       30.31F WCI  21
OLNEY-NOBLE AP MOCLDY    25  12  58 E5        30.30F WCI  19
PARIS          PTCLDY    21  12  67 CALM      30.30F
PEORIA         CLOUDY    24   7  48 S5        30.29F WCI  18
PONTIAC        PTCLDY    23  11  59 SW3       30.30S
RANTOUL        CLOUDY    23  10  58 CALM      30.29S
ROBINSON       CLOUDY    24  12  58 CALM      30.31F
SPRINGFIELD    CLOUDY    26  12  55 S7        30.30F WCI  18
TAYLORVILLE    CLOUDY    25  12  58 SE3       30.30S
$$

...REGIONAL REPORTS...


CITY           SKY/WX    TMP DP  RH WIND       PRES   REMARKS
CHICAGO O`HARE PTCLDY    16   5  62 W5        30.27S WCI   9
KANKAKEE       MOCLDY    19  10  68 SW3       30.30S
MOLINE         CLOUDY    22   7  52 CALM      30.28F
MOUNT STERLING CLOUDY    22  13  66 S6        30.28S WCI  15
MOUNT VERNON   CLOUDY    27  12  54 CALM      30.31S
PITTSFIELD     CLOUDY    24  13  64 E6        30.29F WCI  17
QUINCY         CLOUDY    23  11  60 SE7       30.27F WCI  15
ROCKFORD       MOCLDY    17   7  64 CALM      30.28F
$$


CITY           SKY/WX    TMP DP  RH WIND       PRES   REMARKS
BURLINGTON     CLOUDY    22  12  65 CALM      30.27F
CEDAR RAPIDS   CLOUDY    20  13  74 S3        30.25F
DES MOINES     LGT SNOW  19  14  81 E5        30.25F WCI  12
KIRKSVILLE     CLOUDY    23  11  60 E7        30.25S WCI  15
OTTUMWA        LGT SNOW  20  18  92 S3        30.26S FOG
ST LOUIS       CLOUDY    28  10  46 E10       30.27F WCI  19
$$


CITY           SKY/WX    TMP DP  RH WIND       PRES   REMARKS
TERRE HAUTE    PTCLDY    22  15  75 CALM      30.30F
EVANSVILLE     CLOUDY    29  13  51 NE5       30.31S WCI  24
INDIANAPOLIS   MOCLDY    21  10  62 CALM      30.27F
LAFAYETTE      PTCLDY    20  10  65 CALM      30.30F
MADISON        CLOUDY    15  -1  49 W5        30.23F WCI   8
MILWAUKEE      PTCLDY    15   0  51 SW6       30.24F WCI   6
$$





USA.gov is the U.S. government's official web portal to all federal, state and local government web resources and services.